Linden, NJ

2:59 PM EST on November 13, 2019 (GMT -0500)
Linden

Weather History for KLDJ - October, 2019

Change the Weather History Date:

Sunday, October 20, 2019

  Actual Average (KEWR) Record (KEWR)
Temperature  
Mean Temperature 51 °F -  
Max Temperature 57 °F 62 °F 80 °F (1969)
Min Temperature 45 °F 45 °F 31 °F (1952)
Degree Days  
Heating Degree Days 14    
Growing Degree Days 1 (Base 50)    
Moisture  
Dew Point 47 °F    
Average Humidity 83    
Maximum Humidity 92    
Minimum Humidity 67    
Precipitation  
Precipitation 0.69 in - - ()
Sea Level Pressure  
Sea Level Pressure 30.02 in    
Wind  
Wind Speed 2 mph (East)    
Max Wind Speed 10 mph    
Max Gust Speed -    
Visibility 7 miles    
Events Rain    
Averages and records for this station are not official NWS values.
T = Trace of Precipitation, MM = Missing Value Source: NWS Daily Summary

Daily Weather History Graph

Daily Weather History Graph

Search for Another Location

Airport or City:

Astronomy

Oct. 20, 2019 Rise Set
Actual Time 7:13 AM EDT 6:09 PM EDT
Civil Twilight 6:45 AM EDT 6:37 PM EDT
Nautical Twilight 6:13 AM EDT 7:09 PM EDT
Astronomical Twilight 5:41 AM EDT 7:40 PM EDT
Moon 11:14 PM EDT (10/20) 1:40 PM EDT (10/20)
Length of Visible Light 11h 51m
Length of Day
10h 56m
Waning Gibbous, 59% of the Moon is Illuminated
Oct 20
Waning Gibbous
Oct 21
Last Quarter
Oct 27
New
Nov 4
First Quarter
Nov 12
Full

Hourly Weather History & Observations

Time (EDT) Temp. Dew Point Humidity Pressure Visibility Wind Dir Wind Speed Gust Speed Precip Events Conditions
12:55 AM 49.6 °F 39.0 °F 67% 30.05 in 10.0 mi Calm Calm - N/A   Clear
1:15 AM 49.1 °F 39.9 °F 71% 30.04 in 10.0 mi Calm Calm - N/A   Clear
1:35 AM 48.2 °F 39.4 °F 72% 30.06 in 10.0 mi Calm Calm - N/A   Clear
3:15 AM 47.5 °F 40.8 °F 78% 30.04 in 10.0 mi Calm Calm - N/A   Clear
3:35 AM 46.9 °F 40.5 °F 78% 30.03 in 10.0 mi Calm Calm - N/A   Clear
3:55 AM 46.8 °F 40.6 °F 79% 30.03 in 10.0 mi Calm Calm - N/A   Clear
5:55 AM 46.0 °F 40.1 °F 80% 30.02 in 10.0 mi Calm Calm - N/A   Clear
6:15 AM 45.5 °F 40.3 °F 82% 30.03 in 10.0 mi Calm Calm - N/A   Clear
6:35 AM 45.1 °F 40.5 °F 84% 30.03 in 10.0 mi Calm Calm - N/A   Clear
6:55 AM 45.1 °F 40.5 °F 84% 30.02 in 10.0 mi Calm Calm - N/A   Clear
7:15 AM 45.1 °F 40.5 °F 84% 30.02 in 10.0 mi Calm Calm - N/A   Clear
7:55 AM 45.7 °F 40.5 °F 82% 30.03 in 10.0 mi Calm Calm - N/A   Scattered Clouds
8:15 AM 46.9 °F 41.2 °F 80% 30.05 in 10.0 mi Calm Calm - N/A   Mostly Cloudy
8:35 AM 47.7 °F 41.4 °F 79% 30.06 in 10.0 mi Calm Calm - N/A   Scattered Clouds
8:55 AM 48.7 °F 41.9 °F 77% 30.06 in 10.0 mi Calm Calm - N/A   Mostly Cloudy
9:15 AM 49.5 °F 42.4 °F 77% 30.06 in 10.0 mi Calm Calm - N/A   Overcast
9:35 AM 50.4 °F 43.0 °F 76% 30.05 in 10.0 mi Calm Calm - N/A   Mostly Cloudy
9:55 AM 51.8 °F 44.1 °F 75% 30.06 in 10.0 mi Calm Calm - N/A   Mostly Cloudy
10:15 AM 53.2 °F 45.3 °F 74% 30.05 in 10.0 mi Calm Calm - N/A   Scattered Clouds
10:35 AM 53.8 °F 45.5 °F 74% 30.05 in 10.0 mi Calm Calm - N/A   Scattered Clouds
10:55 AM 55.0 °F 46.4 °F 73% 30.04 in 10.0 mi Calm Calm - N/A   Scattered Clouds
11:15 AM 56.5 °F 46.6 °F 69% 30.04 in 10.0 mi Calm Calm - N/A   Clear
11:35 AM 56.8 °F 46.6 °F 69% 30.04 in 10.0 mi East 5.8 mph - N/A   Scattered Clouds
11:55 AM 56.8 °F 47.5 °F 71% 30.05 in 10.0 mi Calm Calm - N/A   Mostly Cloudy
12:15 PM 57.4 °F 48.9 °F 73% 30.05 in 10.0 mi ENE 3.5 mph - N/A   Light Drizzle
12:35 PM 57.6 °F 49.6 °F 75% 30.05 in 10.0 mi Calm Calm - N/A   Drizzle
12:55 PM 57.0 °F 50.0 °F 77% 30.05 in 7.0 mi Calm Calm - N/A Rain Rain
1:15 PM 56.5 °F 50.9 °F 82% 30.04 in 5.0 mi Calm Calm - 0.01 in Rain Rain
1:35 PM 56.3 °F 51.3 °F 83% 30.04 in 5.0 mi Calm Calm - 0.02 in Rain Light Rain
1:55 PM 56.3 °F 52.0 °F 85% 30.03 in 4.0 mi Calm Calm - 0.03 in Rain Rain
2:15 PM 55.8 °F 52.2 °F 88% 30.03 in 4.0 mi Calm Calm - 0.01 in Rain Rain
2:35 PM 55.6 °F 52.3 °F 89% 30.02 in 3.0 mi NNE 3.5 mph - 0.03 in Rain Light Rain
2:55 PM 55.4 °F 52.3 °F 89% 30.01 in 1.8 mi NNE 4.6 mph - 0.10 in Rain Rain
3:15 PM 55.2 °F 52.7 °F 91% 30.01 in 1.5 mi East 4.6 mph - 0.07 in Rain Rain
3:35 PM 55.4 °F 53.2 °F 92% 30.00 in 2.0 mi Calm Calm - 0.11 in Rain Light Rain
3:55 PM 55.0 °F 52.7 °F 92% 29.99 in 4.0 mi Calm Calm - 0.13 in Rain Light Rain
4:55 PM - - N/A% 29.99 in 4.0 mi Calm Calm - 0.06 in Rain Light Rain
5:15 PM 55.2 °F 52.5 °F 91% 29.99 in 5.0 mi ENE 4.6 mph - 0.02 in Rain Light Rain
5:35 PM 55.6 °F 52.7 °F 90% 29.99 in 7.0 mi East 10.4 mph - 0.05 in Rain Light Rain
5:55 PM 55.2 °F 52.2 °F 89% 29.98 in 5.0 mi East 6.9 mph - 0.08 in Rain Light Rain
6:15 PM 54.5 °F 51.4 °F 89% 29.98 in 5.0 mi ESE 8.1 mph - 0.03 in Rain Light Rain
6:35 PM 54.1 °F 51.4 °F 91% 29.98 in 5.0 mi SE 4.6 mph - 0.08 in Rain Rain
6:55 PM 54.1 °F 51.8 °F 92% 29.99 in 5.0 mi East 8.1 mph - 0.11 in Rain Rain
7:15 PM 54.5 °F 51.8 °F 91% 29.99 in 4.0 mi ESE 9.2 mph - 0.03 in   Heavy Drizzle
7:35 PM 53.8 °F 51.1 °F 91% 29.99 in 3.0 mi ESE 9.2 mph - 0.05 in Rain Rain
7:55 PM 53.2 °F 50.9 °F 92% 29.99 in 5.0 mi ESE 9.2 mph - 0.06 in   Light Drizzle
8:15 PM 53.1 °F 50.7 °F 92% 29.99 in 5.0 mi ESE 6.9 mph - 0.03 in Rain Rain
8:35 PM 52.7 °F 50.4 °F 92% 29.99 in 4.0 mi East 10.4 mph - 0.08 in Rain Rain
8:55 PM 52.3 °F 50.2 °F 92% 29.99 in 4.0 mi ESE 9.2 mph - 0.10 in   Drizzle
9:15 PM 52.3 °F 50.2 °F 92% 29.99 in 4.0 mi ESE 8.1 mph - 0.01 in   Drizzle
9:55 PM 52.9 °F 50.5 °F 92% 29.99 in 7.0 mi East 8.1 mph - 0.02 in   Light Drizzle
10:15 PM 53.6 °F 50.9 °F 91% 29.99 in 10.0 mi NE 5.8 mph - N/A   Overcast
10:55 PM 53.8 °F 50.9 °F 90% 29.98 in 10.0 mi NE 8.1 mph - N/A   Overcast
11:35 PM 53.2 °F 50.4 °F 90% 30.00 in 10.0 mi NE 5.8 mph - N/A   Overcast
11:55 PM 53.1 °F 49.6 °F 88% 29.99 in 10.0 mi NE 9.2 mph - N/A   Light Drizzle